Home > Weather > Melbourne > Past weeks

Flag for Australia Past Weather in Melbourne, Victoria, Australia — Yesterday and Last 2 Weeks

Now
50 °F

Light rain. Broken clouds.


Feels Like: 45 °F
Forecast: 46 / 57 °F
Wind: 15 mph from Southwest

Location: Melbourne Airport

Current Time: May 26, 2016 at 1:02:36 PM

Latest Report: May 26, 2016 at 12:00 PM


Visibility: 2 mi

Pressure: 29.62 "Hg

Humidity: 100%

Dew Point: 50 °F

Location of MelbourneLocation

Past Weather in Melbourne — Graph

°F

Melbourne Temperature Yesterday

Maximum temperature yesterday: 59 °F (at 11:00 AM)
Minimum temperature yesterday: 45 °F (at 2:00 AM)
Average temperature yesterday: 52 °F

High & Low Weather Summary for the Past Weeks

 TemperatureHumidityPressure
High70 °F (May 12, 1:30 PM)100% (May 21, 4:00 AM)30.24 "Hg (May 21, 4:00 AM)
Low43 °F (May 21, 4:00 AM)36% (May 23, 2:30 PM)29.62 "Hg (May 26, 5:00 AM)
Average58 °F68%30.00 "Hg
* Reported May 11 12:00 PM — May 26 12:00 PM, Melbourne, Weather by CustomWeather, © 2016

Note: Actual official high and low records may vary slightly from our data, if they occured in-between our weather recording intervals... More about our weather records

Advertising

Melbourne Weather History for the Previous 24 Hours

Scroll right to see more
 ConditionsComfort  
Time TempWeatherWind HumidityBarometerVisibility
12:00 PM
Thu, May 26
50 °FLight rain. Broken clouds.15 mph100%29.62 "Hg2 mi
11:30 AM52 °FLight rain. Partly sunny.12 mph94%29.62 "Hg2 mi
11:00 AM52 °FLight rain. Partly sunny.7 mph94%29.62 "Hg3 mi
10:00 AM52 °FPartly sunny.8 mph88%29.62 "HgN/A
9:30 AM50 °FPartly sunny.12 mph94%29.62 "HgN/A
9:00 AM50 °FLight rain. Overcast.14 mph94%29.62 "HgN/A
8:30 AM50 °FLight rain. Partly sunny.13 mph94%29.62 "Hg5 mi
8:00 AM50 °FLight rain. Partly sunny.13 mph94%29.62 "HgN/A
7:30 AM48 °FLight rain. Partly sunny.15 mph100%29.62 "Hg3 mi
7:00 AM48 °FLight rain. Partly sunny.18 mph100%29.62 "Hg3 mi
6:30 AM50 °FLight rain. Overcast.20 mph88%29.62 "HgN/A
6:00 AM50 °FLight rain. Overcast.22 mph88%29.62 "HgN/A
5:30 AM50 °FPassing clouds.23 mph88%29.62 "HgN/A
5:00 AM50 °FPassing clouds.23 mph88%29.62 "HgN/A
4:00 AM50 °FLight rain. Passing clouds.23 mph88%29.65 "HgN/A
3:30 AM50 °FLight rain. Passing clouds.22 mph88%29.65 "HgN/A
3:00 AM50 °FPassing clouds.23 mph88%29.65 "HgN/A
2:30 AM50 °FPassing clouds.21 mph88%29.68 "HgN/A
2:00 AM50 °FLight rain. Passing clouds.21 mph88%29.68 "HgN/A
1:30 AM50 °FLight rain. Passing clouds.22 mph88%29.68 "HgN/A
1:00 AM50 °FLight rain. Passing clouds.20 mph88%29.71 "HgN/A
12:30 AM50 °FLight rain. Partly cloudy.24 mph88%29.71 "HgN/A
12:00 AM50 °FLight rain. Mostly cloudy.24 mph88%29.71 "HgN/A
11:47 PM
Wed, May 25
50 °FLight rain. Partly cloudy.29 mph88%29.71 "HgN/A
11:00 PM50 °FLight rain. Mostly cloudy.21 mph88%29.74 "Hg4 mi
10:00 PM52 °FLight rain. Partly cloudy.16 mph82%29.74 "HgN/A
9:30 PM52 °FLight rain. Overcast.13 mph88%29.77 "HgN/A
9:00 PM52 °FScattered showers. Partly cloudy.20 mph82%29.77 "HgN/A
8:30 PM52 °FLight rain. Mostly cloudy.26 mph88%29.74 "Hg4 mi
8:00 PM52 °FLight rain. Clear.17 mph88%29.77 "Hg3 mi
7:00 PM54 °FLight rain. Passing clouds.24 mph77%29.77 "HgN/A
6:30 PM54 °FLight rain. Passing clouds.26 mph72%29.77 "HgN/A
6:00 PM54 °FLight rain. Passing clouds.23 mph72%29.77 "HgN/A
5:30 PM54 °FPartly cloudy.24 mph72%29.77 "HgN/A
5:00 PM55 °FPartly cloudy.24 mph67%29.80 "HgN/A
4:30 PM55 °FMostly cloudy.26 mph67%29.80 "HgN/A
4:00 PM55 °FLight rain. Partly sunny.20 mph72%29.80 "HgN/A
3:00 PM54 °FLight rain. Partly sunny.17 mph82%29.83 "HgN/A
2:30 PM54 °FLight rain. Partly sunny.21 mph82%29.83 "HgN/A
2:00 PM54 °FLight rain. Partly sunny.26 mph82%29.83 "HgN/A
1:30 PM54 °FLight rain. Partly sunny.21 mph77%29.83 "HgN/A
1:00 PM55 °FPartly sunny.26 mph67%29.83 "HgN/A
Weather by CustomWeather, © 2016

See weather overviewHow to use our weather pages